Shirley, NY

3:16 PM EST on December 17, 2017 (GMT -0500)
Brookhaven

Weather History for KHWV - October, 2012

Change the Weather History Date:

Saturday, October 6, 2012

  Actual Average (KISP) Record (KISP)
Temperature  
Mean Temperature 65 °F -  
Max Temperature 75 °F 64 °F 86 °F (1997)
Min Temperature 54 °F 46 °F 30 °F (1965)
Growing Degree Days 15 (Base 50)    
Moisture  
Dew Point 58 °F    
Average Humidity 77    
Maximum Humidity 93    
Minimum Humidity 60    
Precipitation  
Precipitation 0.01 in - - ()
Sea Level Pressure  
Sea Level Pressure 29.88 in    
Wind  
Wind Speed 7 mph (SW)    
Max Wind Speed 17 mph    
Max Gust Speed 26 mph    
Visibility 9 miles    
Events      
Averages and records for this station are not official NWS values.
T = Trace of Precipitation, MM = Missing Value Source: NWS Daily Summary

Daily Weather History Graph

Daily Weather History Graph

Search for Another Location

Airport or City:

Trip Planner

Search our weather history database for the weather conditions in past years. The results will help you decide how hot, cold, wet, or windy it might be!

Date:

Astronomy

Oct. 06, 2012 Rise Set
Actual Time 6:53 AM EDT 6:24 PM EDT
Civil Twilight 6:26 AM EDT 6:51 PM EDT
Nautical Twilight 5:54 AM EDT 7:23 PM EDT
Astronomical Twilight 5:22 AM EDT 7:55 PM EDT
Moon 10:35 PM EDT (10/6) 12:47 PM EDT (10/6)
Length of Visible Light 12h 25m
Length of Day
11h 30m
Waning Gibbous, 65% of the Moon is Illuminated
Oct 6
Waning Gibbous
Oct 8
Last Quarter
Oct 15
New
Oct 21
First Quarter
Oct 29
Full

Hourly Weather History & Observations

Time (EDT) Temp. Dew Point Humidity Pressure Visibility Wind Dir Wind Speed Gust Speed Precip Events Conditions
12:56 AM 62.1 °F 60.1 °F 93% 29.93 in 6.0 mi South 3.5 mph - N/A   Clear
1:56 AM 63.0 °F 61.0 °F 93% 29.92 in 5.0 mi Calm Calm - N/A   Clear
2:56 AM 64.9 °F 63.0 °F 93% 29.90 in 6.0 mi Calm Calm - N/A   Clear
3:56 AM 64.9 °F 62.1 °F 90% 29.90 in 8.0 mi SSW 3.5 mph - N/A   Clear
4:56 AM 63.0 °F 61.0 °F 93% 29.89 in 7.0 mi South 3.5 mph - N/A   Clear
5:56 AM 63.0 °F 60.1 °F 90% 29.89 in 9.0 mi South 3.5 mph - N/A   Clear
6:56 AM 63.0 °F 60.1 °F 90% 29.88 in 8.0 mi South 3.5 mph - N/A   Clear
7:56 AM 66.9 °F 62.1 °F 84% 29.88 in 10.0 mi South 5.8 mph - N/A   Clear
8:56 AM 70.0 °F 63.0 °F 78% 29.87 in 10.0 mi SSW 9.2 mph - N/A   Clear
9:56 AM 73.0 °F 62.1 °F 68% 29.86 in 10.0 mi SW 15.0 mph 23.0 mph 0.01 in   Clear
10:56 AM 73.0 °F 62.1 °F 68% 29.85 in 10.0 mi SW 10.4 mph 23.0 mph N/A   Clear
11:56 AM 73.9 °F 63.0 °F 68% 29.83 in 10.0 mi SSW 13.8 mph - N/A   Clear
12:56 PM 75.9 °F 63.0 °F 64% 29.81 in 10.0 mi SSW 17.3 mph 23.0 mph N/A   Clear
2:56 PM 73.0 °F 64.0 °F 73% 29.78 in 10.0 mi SSW 17.3 mph 26.5 mph N/A   Scattered Clouds
3:56 PM 72.0 °F 64.9 °F 78% 29.78 in 10.0 mi SSW 12.7 mph 21.9 mph N/A   Overcast
4:56 PM 71.1 °F 64.9 °F 81% 29.78 in 10.0 mi SW 12.7 mph 19.6 mph N/A   Overcast
5:56 PM 72.0 °F 64.0 °F 76% 29.81 in 10.0 mi West 13.8 mph 19.6 mph N/A   Overcast
6:56 PM 64.9 °F 53.1 °F 65% 29.86 in 10.0 mi WNW 10.4 mph - N/A   Scattered Clouds
7:56 PM 63.0 °F 51.1 °F 65% 29.89 in 10.0 mi NW 10.4 mph - N/A   Partly Cloudy
8:56 PM 60.1 °F 46.0 °F 60% 29.93 in 10.0 mi WNW 10.4 mph - N/A   Clear
9:56 PM 57.9 °F 45.0 °F 62% 29.95 in 10.0 mi NW 10.4 mph - N/A   Clear
10:56 PM 55.9 °F 44.1 °F 64% 29.98 in 10.0 mi NW 8.1 mph - N/A   Clear
11:56 PM 54.0 °F 44.1 °F 69% 29.98 in 10.0 mi NNW 5.8 mph - N/A   Clear